カタログに戻る

OPS 4682 DEB

運用中PO
NORAD 27545·DEBRIS·🇺🇸 United States

打ち上げ Apr 3, 1965 から Vandenberg Space Force Base

Loading…

次のパス (今後24時間)

TLE

最新Source: Space-Track

元期: Sep 12, 2026, 07:22 UTC

1 27545U 65027BH  26255.30703319  .00000911  00000-0  32064-2 0  9997
2 27545  90.2522   9.2902 0019292  15.2868  11.7827 12.95338581166532

AllMySatでOPS 4682 DEBをリアルタイム追跡

Download on the App Store